Weather History for Albany, NY

Change the Weather History Date:

Monday, January 14, 2013

  Actual Average Record
Temperature  
Mean Temperature 41 °F 22 °F  
Max Temperature 47 °F 30 °F 66 °F (1932)
Min Temperature 34 °F 14 °F -24 °F (1957)
Degree Days  
Heating Degree Days 24 43  
Month to date heating degree days 514 593  
Since 1 July heating degree days 2776 3128  
Cooling Degree Days 0 0  
Month to date cooling degree days 0 0  
Year to date cooling degree days 0 0  
Moisture  
Dew Point 34 °F    
Average Humidity 77    
Maximum Humidity 100    
Minimum Humidity 54    
Precipitation  
Precipitation 0.01 in 0.09 in 1.01 in (2005)
Month to date precipitation 0.15 1.16  
Year to date precipitation 0.15 1.16  
Snow  
Snow 0.00 in 0.60 in 9.00 in (1999)
Month to date snowfall 0.3 8.0  
Since 1 July snowfall 13.7 24.5  
Snow Depth 0.00 in    
Sea Level Pressure  
Sea Level Pressure 30.13 in    
Wind  
Wind Speed 13 mph (West)    
Max Wind Speed 25 mph    
Max Gust Speed 35 mph    
Visibility 8 miles    
Events Rain    
T = Trace of Precipitation, MM = Missing Value Source: NWS Daily Summary

Daily Weather History Graph

Daily Weather History Graph

Search for Another Location

Airport:

Trip Planner

Search our weather history database for the weather conditions in past years. The results will help you decide how hot, cold, wet, or windy it might be!

Date:

Astronomy

Jan. 14, 2013 Rise Set
Actual Time 7:23 AM EST 4:45 PM EST
Civil Twilight 6:51 AM EST 5:17 PM EST
Nautical Twilight 6:16 AM EST 5:52 PM EST
Astronomical Twilight 5:43 AM EST 6:26 PM EST
Moon 8:49 AM EST (1/14) 8:34 PM EST (1/14)
Length of Visible Light 10h 25m
Length of Day
9h 22m
Waxing Crescent, 11% of the Moon is Illuminated
Jan 14
Waxing Crescent
Jan 18
First Quarter
Jan 26
Full
Feb 3
Last Quarter
Feb 10
New

Hourly Weather History & Observations

Time (EST) Temp. Windchill Dew Point Humidity Pressure Visibility Wind Dir Wind Speed Gust Speed Precip Events Conditions
12:51 AM 45.0 °F 39.7 °F 44.1 °F 97% 29.95 in 2.0 mi South 10.4 mph - N/A   Overcast
1:51 AM 45.0 °F 40.1 °F 44.1 °F 97% 29.94 in 2.0 mi South 9.2 mph - 0.00 in   Overcast
2:51 AM 45.0 °F 39.3 °F 43.0 °F 93% 29.96 in 2.0 mi South 11.5 mph 23.0 mph 0.00 in Rain Light Rain
2:59 AM 44.6 °F 39.2 °F 42.8 °F 93% 29.95 in 6.0 mi South 10.4 mph 18.4 mph 0.00 in Rain Light Rain
3:51 AM 45.0 °F 37.6 °F 43.0 °F 93% 29.89 in 7.0 mi SSE 17.3 mph 27.6 mph 0.00 in Rain Light Rain
4:00 AM 44.6 °F 38.1 °F 44.6 °F 100% 29.88 in 7.0 mi South 13.8 mph 32.2 mph 0.00 in Rain Light Rain
4:51 AM 46.0 °F 39.9 °F 44.1 °F 93% 29.89 in 8.0 mi South 13.8 mph 18.4 mph 0.01 in   Overcast
5:51 AM 46.0 °F 40.6 °F 44.1 °F 93% 29.90 in 8.0 mi South 11.5 mph 19.6 mph N/A   Overcast
6:51 AM 46.0 °F 41.0 °F 44.1 °F 93% 30.00 in 8.0 mi West 10.4 mph - 0.00 in   Light Drizzle
7:10 AM 46.4 °F 41.5 °F 42.8 °F 87% 30.01 in 9.0 mi West 10.4 mph 18.4 mph 0.00 in   Overcast
7:51 AM 46.9 °F - 42.1 °F 83% 30.04 in 10.0 mi West 8.1 mph - 0.00 in   Overcast
8:51 AM 46.9 °F - 39.9 °F 77% 30.08 in 10.0 mi West 16.1 mph 23.0 mph N/A   Mostly Cloudy
9:51 AM 44.6 °F 36.9 °F 37.4 °F 76% 30.13 in 10.0 mi WNW 18.4 mph 31.1 mph N/A   Mostly Cloudy
10:51 AM 44.1 °F 37.7 °F 35.1 °F 71% 30.16 in 10.0 mi West 12.7 mph 18.4 mph N/A   Overcast
11:51 AM 45.0 °F 37.6 °F 33.1 °F 63% 30.18 in 10.0 mi WNW 17.3 mph 25.3 mph N/A   Mostly Cloudy
12:51 PM 43.0 °F 34.5 °F 30.0 °F 60% 30.19 in 10.0 mi WNW 19.6 mph 29.9 mph N/A   Mostly Cloudy
1:51 PM 43.0 °F 36.8 °F 28.0 °F 56% 30.21 in 10.0 mi WNW 11.5 mph 25.3 mph N/A   Scattered Clouds
2:51 PM 41.0 °F 33.1 °F 27.0 °F 57% 30.23 in 10.0 mi WNW 15.0 mph 24.2 mph N/A   Scattered Clouds
3:51 PM 39.0 °F 30.6 °F 24.1 °F 55% 30.25 in 10.0 mi WNW 15.0 mph 26.5 mph N/A   Mostly Cloudy
4:51 PM 37.0 °F 28.5 °F 23.0 °F 57% 30.25 in 10.0 mi WNW 13.8 mph - N/A   Scattered Clouds
5:51 PM 35.1 °F 27.4 °F 23.0 °F 61% 30.25 in 10.0 mi West 10.4 mph - N/A   Scattered Clouds
6:51 PM 35.1 °F 26.9 °F 24.1 °F 64% 30.29 in 10.0 mi WNW 11.5 mph 21.9 mph N/A   Mostly Cloudy
7:51 PM 35.1 °F 28.6 °F 24.1 °F 64% 30.30 in 10.0 mi WNW 8.1 mph 17.3 mph N/A   Mostly Cloudy
8:51 PM 35.1 °F 25.9 °F 23.0 °F 61% 30.31 in 10.0 mi WNW 13.8 mph 20.7 mph N/A   Mostly Cloudy
9:51 PM 33.8 °F 26.4 °F 23.0 °F 65% 30.28 in 10.0 mi WNW 9.2 mph - N/A   Mostly Cloudy
10:51 PM 34.0 °F 28.0 °F 21.9 °F 61% 30.31 in 10.0 mi West 6.9 mph - N/A   Mostly Cloudy
11:51 PM 34.0 °F 26.6 °F 21.9 °F 61% 30.34 in 10.0 mi West 9.2 mph - N/A   Overcast